Weather History for 16289 - July, 2013

Change the Weather History Date:

Wednesday, July 17, 2013

  Actual Average Record
Temperature  
Mean Temperature 80 °F -  
Max Temperature 89 °F 85 °F - ()
Min Temperature 72 °F 64 °F - ()
Cooling Degree Days 16    
Growing Degree Days 30 (Base 50)    
Moisture  
Dew Point 56 °F    
Average Humidity 42    
Maximum Humidity 65    
Minimum Humidity 21    
Precipitation  
Precipitation 0.00 in 0.04 in - ()
Sea Level Pressure  
Sea Level Pressure 30.06 in    
Wind  
Wind Speed 5 mph ()    
Max Wind Speed 22 mph    
Max Gust Speed 17 mph    
Visibility 7.5 miles    
Events      
T = Trace of Precipitation, MM = Missing Value Source: Averaged Metar Reports

Daily Weather History Graph

Daily Weather History Graph

Search for Another Location

Airport or City:

Trip Planner

Search our weather history database for the weather conditions in past years. The results will help you decide how hot, cold, wet, or windy it might be!

Date:

Astronomy

Jul. 17, 2013 Rise Set
Actual Time 5:45 AM CEST 8:31 PM CEST
Civil Twilight 5:13 AM CEST 9:04 PM CEST
Nautical Twilight 4:32 AM CEST 9:44 PM CEST
Astronomical Twilight 3:46 AM CEST 10:30 PM CEST
Moon 3:00 PM CEST (7/17) 12:42 AM CEST (7/17)
Length of Visible Light 15h 50m
Length of Day
14h 46m
Waxing Gibbous, 64% of the Moon is Illuminated
Jul 17
Waxing Gibbous
Jul 22
Full
Jul 29
Last Quarter
Aug 6
New
Aug 14
First Quarter

Hourly Weather History & Observations

Time (CEST) Temp. Heat Index Dew Point Humidity Pressure Visibility Wind Dir Wind Speed Gust Speed Precip Events Conditions
12:20 AM 78.8 °F - 53.6 °F 42% 30.09 in - ENE 3.5 mph - N/A   Clear
12:50 AM 77.0 °F - 53.6 °F 44% 30.06 in - Variable 2.3 mph - N/A   Clear
1:20 AM 77.0 °F - 53.6 °F 44% 30.06 in - NNE 3.5 mph - N/A   Clear
1:50 AM 77.0 °F - 53.6 °F 44% 30.06 in - NE 3.5 mph - N/A   Clear
2:00 AM 77 °F - 54 °F 34% 30.07 in 9 mi NE 4.6 mph - -  
2:20 AM 77.0 °F - 53.6 °F 44% 30.06 in - NNE 4.6 mph - N/A   Clear
2:50 AM 75.2 °F - 53.6 °F 47% 30.06 in - NNE 5.8 mph - N/A   Clear
3:20 AM 73.4 °F - 55.4 °F 53% 30.06 in - North 3.5 mph - N/A   Clear
3:50 AM 75.2 °F - 53.6 °F 47% 30.06 in - NNE 3.5 mph - N/A   Clear
4:20 AM 75.2 °F - 53.6 °F 47% 30.06 in - North 4.6 mph - N/A   Clear
4:50 AM 75.2 °F - 51.8 °F 44% 30.06 in - NNE 4.6 mph - N/A   Clear
5:00 AM 74 °F - 52 °F 36% 30.07 in 9 mi NNE 8.9 mph - -  
5:20 AM 73.4 °F - 51.8 °F 47% 30.06 in - NNE 3.5 mph - N/A   Clear
5:50 AM 73.4 °F - 50.0 °F 44% 30.06 in - ENE 4.6 mph - N/A   Clear
6:20 AM 73.4 °F - 50.0 °F 44% 30.06 in - NE 4.6 mph - N/A   Clear
6:50 AM 75.2 °F - 51.8 °F 44% 30.06 in - NE 4.6 mph - N/A   Clear
7:20 AM 77.0 °F - 51.8 °F 41% 30.09 in - NNE 5.8 mph - N/A   Clear
7:50 AM 77.0 °F - 51.8 °F 41% 30.09 in - NE 6.9 mph - N/A   Clear
8:00 AM 78 °F - 52 °F 29% 30.09 in 9 mi NNE 6.9 mph - -  
8:20 AM 78.8 °F - 51.8 °F 39% 30.09 in - NNE 5.8 mph - N/A   Clear
8:50 AM 80.6 °F - 51.8 °F 37% 30.09 in - NE 6.9 mph - N/A   Clear
9:20 AM 82.4 °F - 48.2 °F 30% 30.09 in - NE 8.1 mph - N/A   Clear
9:50 AM 84.2 °F - 50.0 °F 30% 30.09 in - ENE 6.9 mph - N/A   Clear
10:20 AM 84.2 °F - 48.2 °F 29% 30.09 in - ENE 6.9 mph - N/A   Clear
10:50 AM 84.2 °F - 48.2 °F 29% 30.09 in - NNE 11.5 mph - N/A   Clear
11:00 AM 84 °F - 50 °F 21% 30.08 in 9 mi North 22.4 mph - -  
11:20 AM 84.2 °F - 48.2 °F 29% 30.09 in - NE 10.4 mph - N/A   Clear
11:50 AM 86.0 °F - 50.0 °F 29% 30.06 in - NE 10.4 mph - N/A   Clear
12:20 PM 86.0 °F 84.2 °F 53.6 °F 33% 30.06 in - NE 9.2 mph - N/A   Clear
12:50 PM 86.0 °F - 51.8 °F 31% 30.06 in - NNE 9.2 mph - N/A   Clear
1:20 PM 87.8 °F 85.7 °F 53.6 °F 31% 30.06 in - ENE 5.8 mph 17.3 mph N/A   Clear
1:50 PM 87.8 °F - 51.8 °F 29% 30.06 in - NNE 6.9 mph - N/A   Clear
2:00 PM 87 °F - 53 °F 21% 30.05 in 9 mi NE 5.8 mph - -  
2:20 PM 86.0 °F 84.5 °F 55.4 °F 35% 30.04 in - East 10.4 mph - N/A   Clear
2:50 PM 87.8 °F 86.5 °F 57.2 °F 35% 30.04 in - South 6.9 mph - N/A   Clear
3:20 PM 89.6 °F 88.1 °F 57.2 °F 33% 30.04 in 6.2 mi Variable 6.9 mph - N/A   Partly Cloudy
3:50 PM 89.6 °F 88.1 °F 57.2 °F 33% 30.04 in 6.2 mi Variable 3.5 mph - N/A   Partly Cloudy
4:20 PM 86.0 °F 86.1 °F 60.8 °F 43% 30.04 in 6.2 mi South 8.1 mph - N/A   Partly Cloudy
4:50 PM 86.0 °F 86.6 °F 62.6 °F 45% 30.04 in 6.2 mi South 8.1 mph - N/A   Partly Cloudy
5:20 PM 84.2 °F 84.4 °F 60.8 °F 45% 30.01 in 6.2 mi South 5.8 mph - N/A   Partly Cloudy
5:50 PM 84.2 °F 86.6 °F 66.2 °F 55% 30.01 in 6.2 mi South 8.1 mph - N/A   Partly Cloudy
6:20 PM 82.4 °F 84.6 °F 66.2 °F 58% 30.01 in - South 8.1 mph - N/A   Clear
6:50 PM - - - N/A% - - SSW 4.6 mph - N/A   Clear
7:20 PM 84.2 °F 84.4 °F 60.8 °F 45% 30.04 in - Variable 4.6 mph - N/A   Clear
7:50 PM 82.4 °F 82.5 °F 59.0 °F 45% 30.04 in - NW 5.8 mph - N/A   Clear
8:20 PM 80.6 °F 81.8 °F 62.6 °F 54% 30.04 in - WNW 4.6 mph - N/A   Clear
8:50 PM 80.6 °F 82.7 °F 66.2 °F 61% 30.04 in - WNW 4.6 mph - N/A   Clear
9:20 PM 80.6 °F 81.8 °F 62.6 °F 54% 30.06 in - WNW 4.6 mph - N/A   Clear
9:50 PM 78.8 °F - 64.4 °F 61% 30.06 in - WNW 3.5 mph - N/A   Clear
10:20 PM 78.8 °F - 64.4 °F 61% 30.06 in - NE 2.3 mph - N/A   Clear
10:50 PM 78.8 °F - 62.6 °F 57% 30.06 in - Variable 2.3 mph - N/A   Clear
11:20 PM 77.0 °F - 64.4 °F 65% 30.06 in - East 3.5 mph - N/A   Clear
11:50 PM 77.0 °F - 64.4 °F 65% 30.06 in - Variable 2.3 mph - N/A   Clear